| time (UTC) | temp F | wind direction | speed knots | gust knots | rain 1hr in | rain 24hr in | rain mn in | humidity % | barometer mb |
| 20260509185402 | 53 | 274 | 0.0 | 0.0 | 0.05 | 0.40 | 0.40 | 92 | 1008.3 |
| 20260509184902 | 53 | 182 | 0.0 | 0.0 | 0.05 | 0.40 | 0.40 | 92 | 1008.3 |
| 20260509184630 | 53 | 132 | 0.0 | 0.0 | 0.05 | 0.39 | 0.40 | 92 | 1008.3 |
| 20260509183900 | 53 | 132 | 0.0 | 0.0 | 0.05 | 0.39 | 0.39 | 92 | 1008.3 |
| 20260509183359 | 53 | 250 | 0.0 | 0.0 | 0.05 | 0.39 | 0.39 | 92 | 1008.3 |
| 20260509182855 | 53 | 247 | 0.0 | 0.0 | 0.04 | 0.38 | 0.38 | 92 | 1008.3 |
| 20260509182352 | 53 | 248 | 0.0 | 0.0 | 0.03 | 0.37 | 0.37 | 92 | 1008.3 |
| 20260509181853 | 53 | 248 | 0.0 | 0.0 | 0.03 | 0.37 | 0.37 | 92 | 1008.3 |
| 20260509181347 | 53 | 205 | 0.0 | 0.0 | 0.02 | 0.36 | 0.36 | 92 | 1008.3 |
| 20260509180846 | 53 | 115 | 0.0 | 0.0 | 0.01 | 0.35 | 0.36 | 91 | 1008.3 |
| 20260509180343 | 53 | 257 | 0.0 | 0.0 | 0.01 | 0.35 | 0.35 | 92 | 1008.3 |
| 20260509175844 | 53 | 257 | 0.0 | 0.0 | 0.01 | 0.35 | 0.35 | 92 | 1008.3 |
| 20260509175811 | 53 | 175 | 0.0 | 0.0 | 0.01 | 0.35 | 0.35 | 92 | 1008.3 |
| 20260509174830 | 53 | 154 | 0.0 | 0.0 | 0.01 | 0.35 | 0.35 | 92 | 1008.3 |
| 20260509174548 | 53 | 166 | 0.0 | 0.0 | 0.00 | 0.34 | 0.34 | 92 | 1008.3 |
| 20260509174058 | 53 | 130 | 0.0 | 0.0 | 0.00 | 0.34 | 0.34 | 92 | 1008.3 |
| 20260509173328 | 54 | 269 | 0.0 | 0.0 | 0.00 | 0.34 | 0.34 | 92 | 1008.3 |
| 20260509173051 | 54 | 271 | 0.0 | 0.0 | 0.00 | 0.34 | 0.34 | 92 | 1008.3 |
| 20260509172324 | 54 | 270 | 0.0 | 0.0 | 0.01 | 0.34 | 0.34 | 92 | 1008.2 |
| 20260509171823 | 53 | 279 | 0.0 | 0.0 | 0.01 | 0.34 | 0.34 | 92 | 1008.2 |
| 20260509171537 | 53 | 280 | 0.0 | 0.0 | 0.01 | 0.34 | 0.34 | 92 | 1008.2 |
| 20260509170817 | 53 | 239 | 0.0 | 0.0 | 0.01 | 0.34 | 0.34 | 92 | 1008.2 |
| 20260509170318 | 53 | 236 | 0.0 | 0.0 | 0.01 | 0.34 | 0.34 | 92 | 1008.2 |
| 20260509165810 | 53 | 161 | 0.0 | 0.0 | 0.01 | 0.34 | 0.34 | 92 | 1008.2 |
| 20260509165309 | 53 | 157 | 0.0 | 0.0 | 0.01 | 0.34 | 0.34 | 92 | 1008.3 |
| 20260509164807 | 52 | 156 | 0.0 | 0.0 | 0.01 | 0.34 | 0.34 | 92 | 1008.3 |
| 20260509164308 | 52 | 130 | 0.0 | 0.0 | 0.01 | 0.34 | 0.34 | 92 | 1008.3 |
| 20260509163803 | 52 | 118 | 0.0 | 0.0 | 0.01 | 0.34 | 0.34 | 92 | 1008.3 |
| 20260509163304 | 52 | 118 | 0.0 | 0.0 | 0.01 | 0.34 | 0.34 | 92 | 1008.4 |
| 20260509163029 | 52 | 123 | 0.0 | 0.9 | 0.01 | 0.34 | 0.34 | 92 | 1008.5 |
| 20260509162306 | 52 | 123 | 0.0 | 0.9 | 0.00 | 0.33 | 0.33 | 92 | 1008.5 |
| 20260509162029 | 52 | 197 | 0.0 | 0.0 | 0.00 | 0.33 | 0.33 | 92 | 1008.5 |
| 20260509161302 | 52 | 133 | 0.0 | 0.0 | 0.00 | 0.33 | 0.33 | 92 | 1008.5 |
| 20260509160800 | 52 | 254 | 0.0 | 0.0 | 0.01 | 0.33 | 0.33 | 92 | 1008.7 |
| 20260509160259 | 52 | 120 | 0.0 | 0.0 | 0.01 | 0.33 | 0.33 | 92 | 1008.7 |
| 20260509155800 | 52 | 121 | 0.0 | 0.0 | 0.01 | 0.33 | 0.33 | 92 | 1008.7 |
| 20260509155300 | 52 | 129 | 0.0 | 0.0 | 0.01 | 0.33 | 0.33 | 92 | 1008.8 |
| 20260509154801 | 52 | 259 | 0.0 | 3.5 | 0.01 | 0.33 | 0.33 | 92 | 1008.8 |
| 20260509154301 | 52 | 198 | 0.0 | 3.5 | 0.01 | 0.33 | 0.33 | 92 | 1008.8 |
| 20260509153801 | 52 | 116 | 0.0 | 0.0 | 0.02 | 0.33 | 0.33 | 92 | 1008.8 |
| 20260509153301 | 52 | 130 | 0.9 | 9.6 | 0.02 | 0.33 | 0.33 | 92 | 1008.8 |
| 20260509153014 | 52 | 119 | 0.9 | 9.6 | 0.02 | 0.33 | 0.33 | 93 | 1008.8 |
| 20260509152513 | 52 | 263 | 0.0 | 7.8 | 0.03 | 0.33 | 0.33 | 93 | 1008.8 |
| 20260509151747 | 52 | 143 | 0.0 | 0.0 | 0.03 | 0.33 | 0.33 | 93 | 1008.8 |
| 20260509151245 | 52 | 138 | 0.0 | 0.0 | 0.03 | 0.33 | 0.33 | 93 | 1008.8 |
| 20260509150743 | 51 | 138 | 0.0 | 0.0 | 0.02 | 0.32 | 0.32 | 93 | 1009.0 |
| 20260509150245 | 51 | 142 | 0.0 | 7.8 | 0.03 | 0.32 | 0.32 | 93 | 1009.0 |
| 20260509145742 | 51 | 136 | 0.0 | 7.8 | 0.03 | 0.32 | 0.32 | 93 | 1009.1 |
| 20260509145502 | 51 | 131 | 0.0 | 0.0 | 0.03 | 0.32 | 0.32 | 93 | 1009.1 |
| 20260509144741 | 51 | 132 | 0.0 | 0.0 | 0.04 | 0.32 | 0.32 | 93 | 1009.2 |
| 20260509144240 | 51 | 143 | 0.0 | 0.0 | 0.04 | 0.32 | 0.32 | 93 | 1009.3 |
| 20260509143739 | 51 | 128 | 0.0 | 0.0 | 0.03 | 0.31 | 0.31 | 93 | 1009.2 |
| 20260509143232 | 51 | 0 | 0.0 | 0.0 | 0.03 | 0.31 | 0.31 | 94 | 1009.4 |
| 20260509142731 | 51 | 0 | 0.0 | 0.0 | 0.04 | 0.31 | 0.31 | 94 | 1009.4 |
| 20260509142447 | 51 | 0 | 0.0 | 0.0 | 0.03 | 0.30 | 0.31 | 94 | 1009.4 |
| 20260509141730 | 51 | 0 | 0.0 | 0.0 | 0.03 | 0.30 | 0.30 | 93 | 1009.4 |
| 20260509141223 | 51 | 0 | 0.0 | 0.0 | 0.03 | 0.30 | 0.30 | 93 | 1009.5 |
| 20260509140940 | 51 | 0 | 0.0 | 0.0 | 0.04 | 0.30 | 0.30 | 93 | 1009.4 |
| 20260509140221 | 51 | 0 | 0.0 | 0.0 | 0.03 | 0.29 | 0.29 | 93 | 1009.5 |
| 20260509135718 | 51 | 0 | 0.0 | 0.0 | 0.03 | 0.29 | 0.29 | 93 | 1009.4 |
| 20260509135217 | 51 | 0 | 0.0 | 0.0 | 0.03 | 0.29 | 0.29 | 93 | 1009.5 |
| 20260509134939 | 50 | 0 | 0.0 | 0.0 | 0.03 | 0.28 | 0.28 | 93 | 1009.4 |
| 20260509134441 | 50 | 0 | 0.0 | 0.0 | 0.03 | 0.28 | 0.28 | 94 | 1009.4 |
| 20260509133716 | 50 | 0 | 0.0 | 0.0 | 0.03 | 0.28 | 0.28 | 94 | 1009.4 |
| 20260509133214 | 50 | 296 | 0.0 | 0.0 | 0.04 | 0.28 | 0.28 | 94 | 1009.5 |
| 20260509132712 | 50 | 296 | 0.0 | 0.0 | 0.04 | 0.27 | 0.27 | 94 | 1009.5 |
| 20260509132211 | 50 | 0 | 0.0 | 0.0 | 0.04 | 0.27 | 0.27 | 93 | 1009.5 |
| 20260509131711 | 50 | 296 | 0.0 | 0.0 | 0.05 | 0.27 | 0.27 | 93 | 1009.6 |
| 20260509131640 | 50 | 111 | 0.0 | 0.0 | 0.04 | 0.26 | 0.26 | 93 | 1009.6 |
| 20260509130622 | 50 | 111 | 0.0 | 0.0 | 0.05 | 0.26 | 0.26 | 93 | 1009.5 |
| 20260509130052 | 49 | 111 | 0.0 | 0.0 | 0.07 | 0.26 | 0.26 | 93 | 1009.7 |
| 20260509125527 | 49 | 138 | 0.0 | 0.9 | 0.07 | 0.26 | 0.26 | 93 | 1009.7 |
| 20260509125229 | 49 | 139 | 0.0 | 0.9 | 0.08 | 0.26 | 0.26 | 93 | 1009.7 |
| 20260509124433 | 49 | 113 | 0.0 | 0.9 | 0.08 | 0.25 | 0.25 | 93 | 1009.7 |
| 20260509123908 | 49 | 0 | 0.0 | 0.0 | 0.09 | 0.25 | 0.25 | 93 | 1009.7 |
| 20260509123356 | 49 | 0 | 0.0 | 0.0 | 0.08 | 0.24 | 0.24 | 93 | 1009.7 |
| 20260509122853 | 49 | 0 | 0.0 | 0.0 | 0.09 | 0.24 | 0.24 | 93 | 1009.8 |
| 20260509122351 | 49 | 0 | 0.0 | 0.0 | 0.08 | 0.23 | 0.23 | 93 | 1009.9 |
| 20260509121852 | 49 | 0 | 0.0 | 0.0 | 0.08 | 0.22 | 0.22 | 93 | 1009.8 |
| 20260509121348 | 49 | 129 | 0.0 | 0.0 | 0.08 | 0.22 | 0.22 | 93 | 1009.9 |
| 20260509120845 | 49 | 132 | 0.0 | 0.0 | 0.08 | 0.21 | 0.21 | 93 | 1009.8 |
| 20260509120344 | 49 | 130 | 0.0 | 0.0 | 0.07 | 0.20 | 0.20 | 93 | 1009.8 |
| 20260509115843 | 49 | 80 | 0.0 | 0.0 | 0.06 | 0.19 | 0.19 | 93 | 1009.9 |
| 20260509115343 | 49 | 14 | 0.0 | 0.0 | 0.06 | 0.18 | 0.18 | 93 | 1009.9 |
| 20260509114841 | 49 | 126 | 0.0 | 0.0 | 0.05 | 0.17 | 0.17 | 93 | 1009.9 |
| 20260509114339 | 49 | 126 | 0.0 | 0.0 | 0.05 | 0.17 | 0.17 | 93 | 1010.0 |
| 20260509113841 | 48 | 142 | 0.0 | 0.0 | 0.05 | 0.16 | 0.17 | 93 | 1009.9 |
| 20260509113334 | 48 | 288 | 0.0 | 0.0 | 0.05 | 0.16 | 0.16 | 93 | 1009.9 |
| 20260509113054 | 48 | 288 | 0.0 | 0.0 | 0.05 | 0.15 | 0.15 | 93 | 1009.8 |
| 20260509112331 | 48 | 288 | 0.0 | 0.0 | 0.06 | 0.15 | 0.15 | 93 | 1009.9 |
| 20260509112315 | 48 | 286 | 0.0 | 0.0 | 0.06 | 0.14 | 0.14 | 93 | 1009.9 |
| 20260509111315 | 48 | 286 | 0.0 | 0.0 | 0.08 | 0.14 | 0.14 | 93 | 1010.0 |
| 20260509110815 | 48 | 107 | 0.0 | 0.0 | 0.08 | 0.13 | 0.13 | 93 | 1009.9 |
| 20260509110252 | 48 | 102 | 0.0 | 0.0 | 0.09 | 0.13 | 0.13 | 93 | 1009.9 |
| 20260509105750 | 48 | 94 | 0.0 | 0.0 | 0.08 | 0.12 | 0.13 | 93 | 1009.8 |
| 20260509105249 | 47 | 82 | 0.0 | 0.0 | 0.08 | 0.12 | 0.12 | 93 | 1009.8 |
| 20260509104750 | 47 | 149 | 0.0 | 0.0 | 0.08 | 0.12 | 0.12 | 92 | 1009.7 |
| 20260509104249 | 47 | 151 | 0.0 | 0.0 | 0.07 | 0.11 | 0.12 | 93 | 1009.7 |
| 20260509103747 | 47 | 151 | 0.0 | 0.0 | 0.07 | 0.11 | 0.11 | 92 | 1009.6 |
| 20260509103243 | 47 | 150 | 0.0 | 0.0 | 0.06 | 0.10 | 0.11 | 92 | 1009.6 |
| 20260509102743 | 47 | 150 | 0.0 | 0.0 | 0.07 | 0.10 | 0.10 | 92 | 1009.8 |
| 20260509102239 | 46 | 150 | 0.0 | 0.0 | 0.06 | 0.09 | 0.09 | 92 | 1009.9 |
| 20260509101738 | 46 | 150 | 0.0 | 0.0 | 0.04 | 0.07 | 0.08 | 92 | 1009.9 |
| 20260509101231 | 46 | 150 | 0.0 | 0.0 | 0.03 | 0.06 | 0.06 | 92 | 1009.9 |
| 20260509100730 | 46 | 150 | 0.0 | 0.0 | 0.02 | 0.05 | 0.05 | 92 | 1009.9 |
| 20260509100228 | 46 | 150 | 0.0 | 0.0 | 0.01 | 0.04 | 0.04 | 92 | 1009.8 |
| 20260509095728 | 46 | 150 | 0.0 | 0.0 | 0.01 | 0.04 | 0.04 | 92 | 1009.7 |
| 20260509095213 | 46 | 150 | 0.0 | 0.0 | 0.01 | 0.04 | 0.04 | 92 | 1009.7 |
| 20260509094712 | 46 | 150 | 0.0 | 0.0 | 0.01 | 0.04 | 0.04 | 92 | 1009.6 |
| 20260509094205 | 46 | 150 | 0.0 | 0.0 | 0.01 | 0.04 | 0.04 | 92 | 1009.8 |
| 20260509093705 | 46 | 150 | 0.0 | 0.0 | 0.01 | 0.04 | 0.04 | 92 | 1009.7 |
| 20260509093206 | 46 | 150 | 0.0 | 0.0 | 0.01 | 0.04 | 0.04 | 92 | 1009.7 |
| 20260509092701 | 46 | 150 | 0.0 | 0.0 | 0.00 | 0.03 | 0.03 | 92 | 1009.7 |
| 20260509092200 | 46 | 150 | 0.0 | 0.0 | 0.00 | 0.03 | 0.03 | 92 | 1009.8 |
| 20260509091700 | 46 | 150 | 0.0 | 0.0 | 0.00 | 0.03 | 0.03 | 92 | 1009.8 |
| 20260509091157 | 46 | 150 | 0.0 | 0.0 | 0.00 | 0.03 | 0.03 | 92 | 1009.7 |
| 20260509090658 | 46 | 150 | 0.0 | 0.0 | 0.00 | 0.03 | 0.03 | 92 | 1009.7 |
| 20260509090427 | 46 | 150 | 0.0 | 0.0 | 0.00 | 0.03 | 0.03 | 92 | 1009.7 |
| 20260509085651 | 46 | 150 | 0.0 | 0.0 | 0.00 | 0.03 | 0.03 | 91 | 1009.8 |
| 20260509085149 | 46 | 150 | 0.0 | 0.0 | 0.00 | 0.03 | 0.03 | 91 | 1009.8 |
| 20260509084647 | 46 | 150 | 0.0 | 0.0 | 0.00 | 0.03 | 0.03 | 91 | 1009.8 |
| 20260509084149 | 45 | 150 | 0.0 | 0.0 | 0.00 | 0.03 | 0.03 | 91 | 1009.7 |
| 20260509083635 | 45 | 150 | 0.0 | 0.0 | 0.00 | 0.03 | 0.03 | 91 | 1009.8 |
| 20260509083132 | 45 | 150 | 0.0 | 0.0 | 0.00 | 0.03 | 0.03 | 91 | 1009.9 |
| 20260509082626 | 45 | 150 | 0.0 | 0.0 | 0.00 | 0.03 | 0.03 | 91 | 1009.9 |
| 20260509082124 | 45 | 150 | 0.0 | 0.0 | 0.00 | 0.03 | 0.03 | 91 | 1009.9 |
| 20260509081621 | 45 | 150 | 0.0 | 0.0 | 0.00 | 0.03 | 0.03 | 91 | 1010.0 |
| 20260509081119 | 45 | 150 | 0.0 | 0.0 | 0.00 | 0.03 | 0.03 | 90 | 1010.1 |
| 20260509080617 | 45 | 150 | 0.0 | 0.0 | 0.00 | 0.03 | 0.03 | 90 | 1010.2 |
| 20260509080115 | 45 | 150 | 0.0 | 0.0 | 0.00 | 0.03 | 0.03 | 90 | 1010.2 |
| 20260509075614 | 45 | 150 | 0.0 | 0.0 | 0.00 | 0.03 | 0.03 | 90 | 1010.3 |
| 20260509075337 | 45 | 150 | 0.0 | 0.0 | 0.00 | 0.03 | 0.03 | 90 | 1010.3 |
| 20260509074605 | 45 | 150 | 0.0 | 0.0 | 0.00 | 0.03 | 0.03 | 90 | 1010.5 |
| 20260509074102 | 45 | 150 | 0.0 | 0.0 | 0.00 | 0.03 | 0.03 | 90 | 1010.4 |
| 20260509073602 | 45 | 150 | 0.0 | 0.0 | 0.00 | 0.03 | 0.03 | 90 | 1010.5 |
| 20260509073101 | 45 | 150 | 0.0 | 0.0 | 0.01 | 0.03 | 0.03 | 89 | 1010.4 |
| 20260509072600 | 45 | 150 | 0.0 | 0.0 | 0.01 | 0.03 | 0.03 | 89 | 1010.4 |
| 20260509072057 | 45 | 150 | 0.0 | 0.0 | 0.01 | 0.03 | 0.03 | 89 | 1010.4 |
| 20260509071558 | 45 | 150 | 0.0 | 0.0 | 0.01 | 0.03 | 0.03 | 89 | 1010.3 |
| 20260509071044 | 45 | 150 | 0.0 | 0.0 | 0.02 | 0.03 | 0.03 | 89 | 1010.3 |
| 20260509070543 | 45 | 150 | 0.0 | 0.0 | 0.02 | 0.03 | 0.03 | 89 | 1010.2 |
| 20260509070013 | 45 | 152 | 0.0 | 0.0 | 0.02 | 0.03 | 0.03 | 88 | 1010.2 |
| 20260509065443 | 45 | 152 | 0.0 | 0.0 | 0.02 | 0.03 | 0.03 | 88 | 1010.3 |
| 20260509064935 | 45 | 152 | 0.0 | 0.0 | 0.03 | 0.03 | 0.03 | 87 | 1010.4 |
| 20260509064433 | 45 | 152 | 0.0 | 0.0 | 0.03 | 0.03 | 0.03 | 87 | 1010.4 |
| 20260509063920 | 45 | 152 | 0.0 | 0.0 | 0.03 | 0.03 | 0.03 | 87 | 1010.3 |
| 20260509063420 | 45 | 152 | 0.0 | 0.0 | 0.02 | 0.02 | 0.03 | 87 | 1010.4 |
| 20260509063356 | 46 | 152 | 0.0 | 0.0 | 0.02 | 0.02 | 0.02 | 86 | 1010.5 |
| 20260509062416 | 46 | 152 | 0.0 | 0.0 | 0.02 | 0.02 | 0.02 | 86 | 1010.6 |
| 20260509061915 | 46 | 152 | 0.0 | 0.0 | 0.02 | 0.02 | 0.02 | 85 | 1010.8 |
| 20260509061408 | 46 | 152 | 0.0 | 0.0 | 0.02 | 0.02 | 0.02 | 85 | 1010.8 |
| 20260509060908 | 46 | 152 | 0.0 | 0.0 | 0.01 | 0.01 | 0.01 | 85 | 1011.0 |
| 20260509060401 | 46 | 152 | 0.0 | 0.0 | 0.01 | 0.01 | 0.01 | 84 | 1011.0 |
| 20260509055901 | 46 | 152 | 0.0 | 0.0 | 0.01 | 0.01 | 0.01 | 84 | 1011.1 |
| 20260509055359 | 46 | 152 | 0.0 | 0.0 | 0.01 | 0.01 | 0.01 | 84 | 1011.0 |
| 20260509055122 | 46 | 152 | 0.0 | 0.0 | 0.00 | 0.00 | 0.00 | 83 | 1011.0 |
| 20260509054357 | 46 | 152 | 0.0 | 0.0 | 0.00 | 0.00 | 0.00 | 83 | 1011.1 |
| 20260509053859 | 46 | 152 | 0.0 | 0.0 | 0.00 | 0.00 | 0.00 | 83 | 1011.1 |
| 20260509053334 | 46 | 152 | 0.0 | 0.0 | 0.00 | 0.00 | 0.00 | 82 | 1011.1 |
| 20260509052811 | 46 | 152 | 0.0 | 0.0 | 0.00 | 0.00 | 0.00 | 82 | 1011.2 |
| 20260509052241 | 46 | 152 | 0.0 | 0.0 | 0.00 | 0.00 | 0.00 | 81 | 1011.2 |
| 20260509051717 | 46 | 152 | 0.0 | 0.0 | 0.00 | 0.00 | 0.00 | 81 | 1011.1 |
| 20260509051152 | 46 | 152 | 0.0 | 0.0 | 0.00 | 0.00 | 0.00 | 81 | 1011.2 |
| 20260509050901 | 46 | 152 | 0.0 | 0.0 | 0.00 | 0.00 | 0.00 | 81 | 1011.1 |
| 20260509050140 | 46 | 152 | 0.0 | 0.0 | 0.00 | 0.00 | 0.00 | 81 | 1011.0 |
| 20260509045637 | 46 | 152 | 0.0 | 0.0 | 0.00 | 0.00 | 0.00 | 81 | 1011.0 |
| 20260509045136 | 46 | 155 | 0.0 | 0.0 | 0.00 | 0.00 | 0.00 | 81 | 1011.0 |
| 20260509044634 | 46 | 155 | 0.0 | 0.0 | 0.00 | 0.00 | 0.00 | 81 | 1011.0 |
| 20260509044132 | 46 | 154 | 0.0 | 0.0 | 0.00 | 0.00 | 0.00 | 81 | 1011.1 |
| 20260509043856 | 46 | 154 | 0.0 | 0.0 | 0.00 | 0.00 | 0.00 | 81 | 1011.1 |
| 20260509043131 | 46 | 154 | 0.0 | 0.0 | 0.00 | 0.00 | 0.00 | 80 | 1011.1 |
| 20260509042859 | 46 | 154 | 0.0 | 0.0 | 0.00 | 0.00 | 0.00 | 80 | 1011.1 |
| 20260509042132 | 46 | 154 | 0.0 | 0.0 | 0.00 | 0.00 | 0.00 | 80 | 1011.2 |
| 20260509041624 | 46 | 154 | 0.0 | 0.0 | 0.00 | 0.00 | 0.00 | 80 | 1011.3 |
| 20260509041122 | 46 | 154 | 0.0 | 0.0 | 0.00 | 0.00 | 0.00 | 80 | 1011.3 |
| 20260509040849 | 46 | 154 | 0.0 | 0.0 | 0.00 | 0.00 | 0.00 | 80 | 1011.2 |
| 20260509040121 | 46 | 154 | 0.0 | 0.0 | 0.00 | 0.00 | 0.00 | 80 | 1011.3 |
| 20260509035554 | 46 | 154 | 0.0 | 0.0 | 0.00 | 0.00 | 0.00 | 80 | 1011.4 |
| 20260509035306 | 46 | 154 | 0.0 | 0.0 | 0.00 | 0.00 | 0.00 | 81 | 1011.3 |
| 20260509034545 | 45 | 154 | 0.0 | 0.0 | 0.00 | 0.00 | 0.00 | 82 | 1011.4 |
| 20260509034308 | 45 | 154 | 0.0 | 0.0 | 0.00 | 0.00 | 0.00 | 82 | 1011.3 |
| 20260509033809 | 45 | 154 | 0.0 | 0.0 | 0.00 | 0.00 | 0.00 | 82 | 1011.4 |
| 20260509033039 | 45 | 155 | 0.0 | 0.0 | 0.00 | 0.00 | 0.00 | 82 | 1011.4 |
| 20260509032759 | 45 | 155 | 0.0 | 0.0 | 0.00 | 0.00 | 0.00 | 82 | 1011.4 |
| 20260509032036 | 45 | 155 | 0.0 | 0.0 | 0.00 | 0.00 | 0.00 | 81 | 1011.4 |
| 20260509031533 | 45 | 155 | 0.0 | 0.0 | 0.00 | 0.00 | 0.00 | 80 | 1011.3 |
| 20260509031033 | 45 | 155 | 0.0 | 0.0 | 0.00 | 0.00 | 0.00 | 80 | 1011.2 |
| 20260509030533 | 45 | 155 | 0.0 | 0.0 | 0.00 | 0.00 | 0.00 | 79 | 1011.2 |
| 20260509030250 | 45 | 155 | 0.0 | 0.0 | 0.00 | 0.00 | 0.00 | 78 | 1011.3 |
| 20260509025523 | 45 | 155 | 0.0 | 0.0 | 0.00 | 0.00 | 0.00 | 78 | 1011.3 |
| 20260509025023 | 46 | 155 | 0.0 | 0.0 | 0.00 | 0.00 | 0.00 | 77 | 1011.4 |
| 20260509024521 | 46 | 155 | 0.0 | 0.0 | 0.00 | 0.00 | 0.00 | 76 | 1011.5 |
| 20260509024021 | 46 | 155 | 0.0 | 0.0 | 0.00 | 0.00 | 0.00 | 75 | 1011.5 |
| 20260509023459 | 46 | 155 | 0.0 | 0.0 | 0.00 | 0.00 | 0.00 | 74 | 1011.5 |
| 20260509022958 | 46 | 155 | 0.0 | 0.0 | 0.00 | 0.00 | 0.00 | 74 | 1011.4 |
| 20260509022455 | 46 | 155 | 0.0 | 0.0 | 0.00 | 0.00 | 0.00 | 74 | 1011.4 |
| 20260509021952 | 46 | 155 | 0.0 | 0.0 | 0.00 | 0.00 | 0.00 | 73 | 1011.3 |
| 20260509021720 | 47 | 155 | 0.0 | 0.0 | 0.00 | 0.00 | 0.00 | 72 | 1011.3 |
| 20260509021215 | 47 | 155 | 0.0 | 0.0 | 0.00 | 0.00 | 0.00 | 72 | 1011.3 |
| 20260509020706 | 47 | 155 | 0.0 | 0.0 | 0.00 | 0.00 | 0.00 | 72 | 1011.3 |
| 20260509015940 | 47 | 155 | 0.0 | 0.0 | 0.00 | 0.00 | 0.00 | 71 | 1011.3 |
| 20260509015706 | 47 | 155 | 0.0 | 0.0 | 0.00 | 0.00 | 0.00 | 71 | 1011.4 |
| 20260509014936 | 47 | 155 | 0.0 | 0.0 | 0.00 | 0.00 | 0.00 | 71 | 1011.3 |
| 20260509014701 | 47 | 155 | 0.0 | 0.0 | 0.00 | 0.00 | 0.00 | 71 | 1011.4 |
| 20260509013938 | 47 | 155 | 0.0 | 0.0 | 0.00 | 0.00 | 0.00 | 70 | 1011.3 |
| 20260509013433 | 48 | 155 | 0.0 | 0.0 | 0.00 | 0.00 | 0.00 | 70 | 1011.3 |
| 20260509012936 | 48 | 155 | 0.0 | 0.0 | 0.00 | 0.00 | 0.00 | 69 | 1011.2 |
| 20260509012409 | 48 | 155 | 0.0 | 0.0 | 0.00 | 0.00 | 0.00 | 68 | 1011.1 |
| 20260509012104 | 49 | 155 | 0.0 | 0.0 | 0.00 | 0.00 | 0.00 | 67 | 1011.0 |
| 20260509011533 | 49 | 155 | 0.0 | 0.0 | 0.00 | 0.00 | 0.00 | 66 | 1011.0 |
| 20260509010747 | 51 | 155 | 0.0 | 0.0 | 0.00 | 0.00 | 0.00 | 64 | 1011.0 |
| 20260509010222 | 51 | 155 | 0.0 | 0.0 | 0.00 | 0.00 | 0.00 | 63 | 1010.9 |
| 20260509005655 | 51 | 155 | 0.0 | 0.0 | 0.00 | 0.00 | 0.00 | 63 | 1010.8 |
| 20260509005129 | 52 | 155 | 0.0 | 0.0 | 0.00 | 0.00 | 0.00 | 63 | 1010.8 |
| 20260509004603 | 52 | 155 | 0.0 | 0.0 | 0.00 | 0.00 | 0.00 | 62 | 1010.6 |
| 20260509004038 | 52 | 134 | 0.0 | 0.0 | 0.00 | 0.00 | 0.00 | 59 | 1010.4 |
| 20260509003511 | 51 | 105 | 0.0 | 0.0 | 0.00 | 0.00 | 0.00 | 60 | 1010.4 |
| 20260509002947 | 51 | 101 | 0.0 | 0.0 | 0.00 | 0.00 | 0.00 | 59 | 1010.4 |
| 20260509002419 | 51 | 101 | 0.0 | 0.0 | 0.00 | 0.00 | 0.00 | 60 | 1010.2 |
| 20260509001900 | 52 | 101 | 0.0 | 0.0 | 0.00 | 0.00 | 0.00 | 61 | 1010.3 |
| 20260509001400 | 52 | 101 | 0.0 | 0.0 | 0.00 | 0.00 | 0.00 | 61 | 1010.2 |
| 20260509000834 | 53 | 101 | 0.0 | 0.0 | 0.00 | 0.00 | 0.00 | 60 | 1010.1 |
| 20260509000320 | 53 | 101 | 0.0 | 0.0 | 0.00 | 0.00 | 0.00 | 60 | 1010.1 |
| 20260508235818 | 53 | 101 | 0.0 | 0.0 | 0.00 | 0.00 | 0.00 | 59 | 1010.1 |
| 20260508235249 | 53 | 101 | 0.0 | 0.0 | 0.00 | 0.00 | 0.00 | 58 | 1010.0 |
| 20260508234724 | 54 | 101 | 0.0 | 0.0 | 0.00 | 0.00 | 0.00 | 56 | 1010.0 |
| 20260508234421 | 55 | 101 | 0.0 | 0.0 | 0.00 | 0.00 | 0.00 | 53 | 1009.9 |
| 20260508233911 | 55 | 101 | 0.0 | 0.0 | 0.00 | 0.00 | 0.00 | 53 | 1009.9 |
| 20260508233148 | 55 | 88 | 0.0 | 0.0 | 0.00 | 0.00 | 0.00 | 52 | 1009.8 |
| 20260508232641 | 55 | 88 | 0.0 | 0.0 | 0.00 | 0.00 | 0.00 | 51 | 1009.8 |
| 20260508232141 | 55 | 88 | 0.0 | 0.0 | 0.00 | 0.00 | 0.00 | 50 | 1009.7 |
| 20260508231639 | 55 | 88 | 0.0 | 0.0 | 0.00 | 0.00 | 0.00 | 51 | 1009.7 |
| 20260508231137 | 55 | 87 | 0.0 | 0.0 | 0.00 | 0.00 | 0.00 | 50 | 1009.7 |
| 20260508230638 | 55 | 89 | 0.0 | 0.0 | 0.00 | 0.00 | 0.00 | 50 | 1009.7 |
| 20260508230400 | 56 | 184 | 0.0 | 0.0 | 0.00 | 0.00 | 0.00 | 51 | 1009.8 |
| 20260508225633 | 56 | 184 | 0.0 | 0.0 | 0.00 | 0.00 | 0.00 | 51 | 1009.7 |
| 20260508225133 | 56 | 184 | 0.0 | 0.0 | 0.00 | 0.00 | 0.00 | 50 | 1009.6 |
| 20260508224854 | 56 | 184 | 0.0 | 0.0 | 0.00 | 0.00 | 0.00 | 49 | 1009.6 |
| 20260508224127 | 56 | 184 | 0.0 | 0.0 | 0.00 | 0.00 | 0.00 | 49 | 1009.6 |
| 20260508223628 | 56 | 184 | 0.0 | 0.0 | 0.00 | 0.00 | 0.00 | 48 | 1009.7 |
| 20260508223120 | 56 | 304 | 0.0 | 0.0 | 0.00 | 0.00 | 0.00 | 48 | 1009.7 |
| 20260508222847 | 56 | 304 | 0.0 | 0.0 | 0.00 | 0.00 | 0.00 | 49 | 1009.6 |
| 20260508222116 | 56 | 304 | 0.0 | 0.0 | 0.00 | 0.00 | 0.00 | 49 | 1009.7 |
| 20260508221615 | 56 | 305 | 0.0 | 0.0 | 0.00 | 0.00 | 0.00 | 49 | 1009.7 |
| 20260508221116 | 56 | 0 | 0.0 | 0.0 | 0.00 | 0.00 | 0.00 | 48 | 1009.7 |
| 20260508220613 | 56 | 304 | 0.0 | 0.9 | 0.00 | 0.00 | 0.00 | 49 | 1009.5 |
| 20260508220114 | 56 | 309 | 0.0 | 0.9 | 0.00 | 0.00 | 0.00 | 48 | 1009.7 |
| 20260508215553 | 56 | 348 | 0.0 | 0.0 | 0.00 | 0.00 | 0.00 | 48 | 1009.6 |
| 20260508215054 | 56 | 328 | 0.0 | 0.0 | 0.00 | 0.00 | 0.00 | 47 | 1009.7 |
| 20260508214540 | 57 | 302 | 0.0 | 0.9 | 0.00 | 0.00 | 0.00 | 47 | 1009.7 |
| 20260508214300 | 57 | 0 | 0.0 | 0.9 | 0.00 | 0.00 | 0.00 | 48 | 1009.7 |
| 20260508214027 | 57 | 0 | 0.0 | 0.0 | 0.00 | 0.00 | 0.00 | 49 | 1009.8 |
| 20260508213037 | 56 | 0 | 0.0 | 0.0 | 0.00 | 0.00 | 0.00 | 48 | 1009.8 |
| 20260508212536 | 56 | 310 | 0.0 | 0.0 | 0.00 | 0.00 | 0.00 | 48 | 1009.9 |
| 20260508212031 | 56 | 310 | 0.0 | 0.0 | 0.00 | 0.00 | 0.00 | 47 | 1009.9 |
| 20260508211533 | 56 | 0 | 0.0 | 0.0 | 0.00 | 0.00 | 0.00 | 48 | 1010.0 |
| 20260508211030 | 56 | 0 | 0.0 | 0.0 | 0.00 | 0.00 | 0.00 | 48 | 1010.0 |
| 20260508210744 | 56 | 0 | 0.0 | 0.9 | 0.00 | 0.00 | 0.00 | 48 | 1010.0 |
| 20260508210023 | 56 | 305 | 0.0 | 0.9 | 0.00 | 0.00 | 0.00 | 49 | 1010.0 |
| 20260508205524 | 57 | 285 | 0.0 | 0.0 | 0.00 | 0.00 | 0.00 | 47 | 1010.0 |
| 20260508205018 | 57 | 311 | 0.0 | 0.0 | 0.00 | 0.00 | 0.00 | 46 | 1010.1 |
| 20260508204746 | 57 | 355 | 0.0 | 0.0 | 0.00 | 0.00 | 0.00 | 48 | 1010.1 |
| 20260508204014 | 57 | 0 | 0.0 | 7.0 | 0.00 | 0.00 | 0.00 | 47 | 1010.2 |
| 20260508203514 | 57 | 32 | 0.0 | 7.0 | 0.00 | 0.00 | 0.00 | 48 | 1010.1 |
| 20260508203003 | 57 | 0 | 0.0 | 8.7 | 0.00 | 0.00 | 0.00 | 48 | 1010.3 |
| 20260508202504 | 56 | 331 | 0.0 | 8.7 | 0.00 | 0.00 | 0.00 | 47 | 1010.3 |
| 20260508201940 | 57 | 0 | 0.0 | 0.9 | 0.00 | 0.00 | 0.00 | 47 | 1010.4 |
| 20260508201438 | 57 | 242 | 0.0 | 5.2 | 0.00 | 0.00 | 0.00 | 47 | 1010.4 |
| 20260508200937 | 57 | 0 | 0.0 | 5.2 | 0.00 | 0.00 | 0.00 | 46 | 1010.4 |
| 20260508200436 | 57 | 300 | 0.0 | 0.9 | 0.00 | 0.00 | 0.00 | 47 | 1010.4 |
| 20260508195938 | 57 | 274 | 0.0 | 7.8 | 0.00 | 0.00 | 0.00 | 46 | 1010.5 |
| 20260508195433 | 57 | 308 | 0.0 | 7.8 | 0.00 | 0.00 | 0.00 | 45 | 1010.6 |
| 20260508194930 | 56 | 284 | 0.9 | 8.7 | 0.00 | 0.00 | 0.00 | 48 | 1010.8 |
| 20260508194433 | 55 | 0 | 1.7 | 12.2 | 0.00 | 0.00 | 0.00 | 47 | 1010.8 |
| 20260508193930 | 56 | 278 | 1.7 | 12.2 | 0.00 | 0.00 | 0.00 | 47 | 1010.8 |
| 20260508193651 | 56 | 0 | 0.0 | 7.0 | 0.00 | 0.00 | 0.00 | 47 | 1010.9 |
| 20260508193205 | 56 | 0 | 0.0 | 1.7 | 0.00 | 0.00 | 0.00 | 48 | 1010.8 |
| 20260508192419 | 55 | 0 | 0.0 | 2.6 | 0.00 | 0.00 | 0.00 | 48 | 1010.9 |
| 20260508191918 | 56 | 286 | 0.0 | 2.6 | 0.00 | 0.00 | 0.00 | 47 | 1011.1 |
| 20260508191416 | 56 | 0 | 0.9 | 8.7 | 0.00 | 0.00 | 0.00 | 48 | 1011.1 |
| 20260508191134 | 55 | 0 | 0.0 | 8.7 | 0.00 | 0.00 | 0.00 | 50 | 1011.2 |
| 20260508190356 | 55 | 0 | 0.0 | 2.6 | 0.00 | 0.00 | 0.00 | 49 | 1011.4 |
| 20260508190119 | 55 | 278 | 0.9 | 12.2 | 0.00 | 0.00 | 0.00 | 51 | 1011.4 |